Regional Weather Roundup
Issued by NWS

Home | Current Version | Previous Version | Graphics & Text | Print | Product List | Glossary On
Versions: 1 2 3 4 5 6 7 8 9 10 11 12 13 14 15 16 17 18 19 20 21 22 23 24 25 26 27 28 29 30 31 32 33 34 35 36 37 38 39 40 41 42 43 44 45 46 47 48 49 50
433
ASUS43 KDTX 231101
RWRMI
MICHIGAN HOURLY REGIONAL WEATHER ROUNDUP
NATIONAL WEATHER SERVICE DETROIT/PONTIAC MI
700 AM EDT TUE MAY 23 2017

NOTE: "FAIR" INDICATES FEW OR NO CLOUDS BELOW 12,000 FEET WITH NO
SIGNIFICANT WEATHER AND/OR OBSTRUCTION TO VISIBILITY.

MIZ047>049-052>055-059>063-066>070-074>076-081>083-231200-
SOUTHEAST LOWER MICHIGAN

CITY           SKY/WX    TMP DP  RH WIND       PRES   REMARKS
ADRIAN         CLOUDY    54  51  90 SW3       29.90S
ALMA           CLOUDY    56  53  88 S3        29.85S
ANN ARBOR      CLOUDY    56  50  80 CALM      29.88S
BAD AXE        LGT RAIN  55  52  91 W3        29.87R
CARO           LGT RAIN  55  53  91 SW5       29.86S
DETROIT CITY   CLOUDY    59  49  69 SW7       29.89F
DETROIT        CLOUDY    57  50  77 SW3       29.89F
FLINT          LGT RAIN  58  51  78 SW7       29.88R
GROSSE ILE     CLOUDY    58  51  78 SW3       29.88F
HILLSDALE      CLOUDY    55  46  71 S3        29.88F
HOWELL         CLOUDY    56  49  77 CALM      29.87F

CITY           SKY/WX    TMP DP  RH WIND       PRES   REMARKS
JACKSON        CLOUDY    58  49  72 S8        29.88S
LAMBERTVILLE   CLOUDY    57  49  74 S3        29.89S
LANSING        CLOUDY    58  51  78 S6        29.87S
LAPEER         RAIN      58  50  74 SW6       29.88S
MASON          CLOUDY    57  51  80 S3        29.88R
MONROE         CLOUDY    57  51  82 CALM      29.89S
MT. CLEMENS    CLOUDY    57  52  84 S5        29.88R
PONTIAC        LGT RAIN  57  50  77 S3        29.88S
PORT HOPE        N/A     56  50  80 SW3       29.83S
PORT HURON     CLOUDY    55  50  82 CALM      29.89S
TRI CITIES     CLOUDY    58  53  84 S8        29.86R
MIDLAND        CLOUDY    56  53  88 SW3       29.84S
TROY           CLOUDY    59  46  60 CALM      29.90S
SAGINAW HB     LGT RAIN  57  50  77 S7        29.86R
$$
MIZ043>046-050>051-056>058-064>065-071>073-077>080-231200-
SOUTHWEST LOWER MICHIGAN

CITY           SKY/WX    TMP DP  RH WIND       PRES   REMARKS
BATTLE CREEK   CLOUDY    58  51  78 S9        29.86F
BENTON HARBOR  CLOUDY    58  52  80 SE5       29.83F
BIG RAPIDS     CLOUDY    53  52  94 S3        29.82S
COLDWATER      LGT RAIN  57  52  84 CALM      29.88S
FREMONT        CLOUDY    54  53  95 CALM      29.82S
HOLLAND        CLOUDY    59  52  77 SW9       29.84S
GRAND RAPIDS   CLOUDY    58  53  84 S7        29.84S
IONIA          CLOUDY    58  51  77 S7        29.84S
KALAMAZOO      CLOUDY    59  50  72 S9        29.86F
LUDINGTON      CLOUDY    54  53  95 SE3       29.79F
MARSHALL       CLOUDY    58  51  78 S6        29.87S
MOUNT PLEASANT CLOUDY    55  53  91 SE3       29.83S
MUSKEGON       CLOUDY    56  52  86 S6        29.82S
SOUTH HAVEN    CLOUDY    59  53  78 CALM      29.83F
$$
MIZ016>042-231200-
NORTHERN LOWER MICHIGAN

CITY           SKY/WX    TMP DP  RH WIND       PRES   REMARKS
ALPENA         CLEAR     42  41  96 CALM      29.84R
BEAVER ISLAND    N/A     35  35 100 CALM      29.83S FOG
BELLAIRE       FOG       42  41  96 CALM      29.82F VSB<1/4
CADILLAC       PTCLDY    43  42  96 CALM      29.82S
CHARLEVOIX     FOG       43  43 100 CALM      29.86R VSB<1/4
FRANKFORT      PTCLDY    42  40  91 CALM      29.82R
GAYLORD        FOG       43  41  93 CALM      29.83R VSB 1/4
GRAYLING       MOCLDY    39  38  96 CALM      29.84R
HARBOR SPRINGS FOG       42  42 100 CALM      29.83R VSB 3/4
HOUGHTON LAKE  CLOUDY    46  45  96 CALM      29.84R
MANISTEE       CLOUDY    47  46  97 E6        29.81S
OSCODA         CLOUDY    50  48  93 CALM      29.84R
PELLSTON       FOG       40  38  93 CALM      29.83F VSB<1/4
ROGERS CITY    CLEAR     43  42  97 CALM      29.84S FOG
TRAVERSE CITY  MOCLDY    44  42  93 CALM      29.82R
$$
MIZ007>008-015-231200-
EASTERN UPPER MICHIGAN

CITY           SKY/WX    TMP DP  RH WIND       PRES   REMARKS
KINROSS        FOG       44  44 100 NE5       29.82F VSB 1/4
MACKINAC ISLAN FOG       43  43 100 CALM      29.83R VSB<1/4
NEWBERRY       CLOUDY    37  37  97 CALM      29.83R FOG
S. S. MARIE    FOG       47  45  93 VRB3      29.82F VSB<1/4
MUNISING         N/A     37  37 100 S7        29.82S WCI  32
$$
MIZ004>006-011>014-085-231200-
CENTRAL UPPER MICHIGAN

CITY           SKY/WX    TMP DP  RH WIND       PRES   REMARKS
MANISTIQUE     FOG       34  32  91 CALM      29.83S VSB 1/2
ESCANABA       PTCLDY    39  39 100 CALM      29.83R
MENOMINEE      MOCLDY    46  45  96 CALM      29.82R
SAWYER-GWINN   CLEAR     34  34 100 CALM      29.82S
$$
MIZ001>003-009>011-084-231200-
WESTERN UPPER MICHIGAN

CITY           SKY/WX    TMP DP  RH WIND       PRES   REMARKS
IRON MOUNTAIN  CLOUDY    40  37  89 NW3       29.81R
HOUGHTON       CLOUDY    44  40  85 NW5       29.82R
COPPER HARBOR    N/A     43  41  93 N5        29.83R
IRONWOOD       CLOUDY    41  41 100 CALM      29.82S FOG
$$

ABBREVIATIONS USED IN REMARKS
   TC - TEMPERATURE IN CELSIUS
  WCI - WIND CHILL INDEX
   HX - HEAT INDEX
  VSB - VISIBILITY





USA.gov is the U.S. government's official web portal to all federal, state and local government web resources and services.